contact:dominique.lefevre@mio.osupytheas.fr, maurice.libes@osupytheas.fr, didier.mallarino@osupytheas.fr
Project:EMSO http://www.emso-fr.org/EMSO-France
Depth: 2436.0 m
Title:EMSO Ligure Ouest : Data MII capteur CSTAR
DateTime,Latitude,Longitude,Instrument_Serial,Reference_Counts,Signal_Counts,Corrected_Signal_raw_counts,Calculated_Beam_c_inverse_meters,Internal_thermistor_counts
DateTime,Latitude,Longitude,Instrument_Serial,Reference_Counts,Signal_Counts,Corrected_Signal_raw_counts,Calculated_Beam_c_inverse_meters,Internal_thermistor_counts
2022-04-04T00:00:23,42.805,6.029,CST-1368DR,4815,5682,12589,0.862,551
2022-04-04T00:03:25,42.805,6.029,CST-1368DR,4815,5677,12579,0.865,551
2022-04-04T00:06:26,42.805,6.029,CST-1368DR,4815,5680,12586,0.863,551
2022-04-04T00:09:28,42.805,6.029,CST-1368DR,4815,5681,12587,0.863,551
2022-04-04T00:12:30,42.805,6.029,CST-1368DR,4815,5681,12588,0.862,551
2022-04-04T00:15:31,42.805,6.029,CST-1368DR,4815,5685,12597,0.859,551
2022-04-04T00:18:33,42.805,6.029,CST-1368DR,4815,5686,12599,0.859,551
2022-04-04T00:21:34,42.805,6.029,CST-1368DR,4815,5683,12592,0.861,551
2022-04-04T00:24:36,42.805,6.029,CST-1368DR,4815,5678,12581,0.864,551
2022-04-04T00:27:37,42.805,6.029,CST-1368DR,4815,5683,12591,0.861,551
2022-04-04T00:30:39,42.805,6.029,CST-1368DR,4815,5685,12596,0.860,551
2022-04-04T00:33:41,42.805,6.029,CST-1368DR,4815,5679,12583,0.864,551
2022-04-04T00:36:42,42.805,6.029,CST-1368DR,4815,5678,12580,0.865,551
2022-04-04T00:39:44,42.805,6.029,CST-1368DR,4815,5683,12591,0.861,551
2022-04-04T00:42:45,42.805,6.029,CST-1368DR,4815,5681,12587,0.863,551
2022-04-04T00:45:47,42.805,6.029,CST-1368DR,4815,5681,12587,0.863,551
2022-04-04T00:48:48,42.805,6.029,CST-1368DR,4815,5676,12576,0.866,551
2022-04-04T00:51:50,42.805,6.029,CST-1368DR,4815,5676,12577,0.866,551
2022-04-04T00:54:52,42.805,6.029,CST-1368DR,4815,5676,12577,0.866,551
2022-04-04T00:57:53,42.805,6.029,CST-1368DR,4815,5676,12576,0.866,551
2022-04-04T01:00:55,42.805,6.029,CST-1368DR,4815,5673,12571,0.868,551
2022-04-04T01:03:56,42.805,6.029,CST-1368DR,4815,5677,12580,0.865,551
2022-04-04T01:06:58,42.805,6.029,CST-1368DR,4815,5676,12577,0.866,551
2022-04-04T01:10:00,42.805,6.029,CST-1368DR,4815,5674,12572,0.867,551
2022-04-04T01:13:01,42.805,6.029,CST-1368DR,4815,5677,12578,0.865,551
2022-04-04T01:16:03,42.805,6.029,CST-1368DR,4815,5677,12578,0.865,551
2022-04-04T01:19:04,42.805,6.029,CST-1368DR,4815,5676,12577,0.866,551
2022-04-04T01:22:06,42.805,6.029,CST-1368DR,4815,5675,12575,0.866,551
2022-04-04T01:25:07,42.805,6.029,CST-1368DR,4815,5674,12572,0.867,551
2022-04-04T01:28:09,42.805,6.029,CST-1368DR,4815,5667,12557,0.872,551
2022-04-04T01:31:11,42.805,6.029,CST-1368DR,4815,5677,12578,0.865,551
2022-04-04T01:34:12,42.805,6.029,CST-1368DR,4815,5676,12577,0.866,551
2022-04-04T01:37:14,42.805,6.029,CST-1368DR,4815,5672,12568,0.869,551
2022-04-04T01:40:15,42.805,6.029,CST-1368DR,4815,5659,12539,0.878,551
2022-04-04T01:43:17,42.805,6.029,CST-1368DR,4815,5676,12576,0.866,551
2022-04-04T01:46:18,42.805,6.029,CST-1368DR,4815,5674,12572,0.867,551
2022-04-04T01:49:20,42.805,6.029,CST-1368DR,4815,5675,12575,0.866,551
2022-04-04T01:52:22,42.805,6.029,CST-1368DR,4815,5673,12569,0.868,550
2022-04-04T01:55:23,42.805,6.029,CST-1368DR,4815,5670,12563,0.870,551
2022-04-04T01:58:25,42.805,6.029,CST-1368DR,4815,5674,12572,0.867,551
2022-04-04T02:01:26,42.805,6.029,CST-1368DR,4815,5672,12568,0.869,551
2022-04-04T02:04:28,42.805,6.029,CST-1368DR,4815,5664,12550,0.874,551
2022-04-04T02:07:30,42.805,6.029,CST-1368DR,4815,5665,12551,0.874,551
2022-04-04T02:10:31,42.805,6.029,CST-1368DR,4815,5670,12564,0.870,551
2022-04-04T02:13:33,42.805,6.029,CST-1368DR,4815,5670,12562,0.870,551
2022-04-04T02:16:34,42.805,6.029,CST-1368DR,4815,5668,12558,0.872,551
2022-04-04T02:19:36,42.805,6.029,CST-1368DR,4815,5676,12576,0.866,551
2022-04-04T02:22:37,42.805,6.029,CST-1368DR,4815,5668,12558,0.872,551
2022-04-04T02:25:39,42.805,6.029,CST-1368DR,4815,5668,12559,0.871,551
2022-04-04T02:28:41,42.805,6.029,CST-1368DR,4815,5663,12549,0.875,551
2022-04-04T02:31:42,42.805,6.029,CST-1368DR,4815,5657,12534,0.879,551
2022-04-04T02:34:44,42.805,6.029,CST-1368DR,4815,5664,12550,0.874,551
2022-04-04T02:37:45,42.805,6.029,CST-1368DR,4815,5661,12544,0.876,551
2022-04-04T02:40:47,42.805,6.029,CST-1368DR,4815,5660,12540,0.877,551
2022-04-04T02:43:48,42.805,6.029,CST-1368DR,4815,5662,12546,0.876,551
2022-04-04T02:46:50,42.805,6.029,CST-1368DR,4815,5663,12547,0.875,551
2022-04-04T02:49:52,42.805,6.029,CST-1368DR,4815,5664,12551,0.874,551
2022-04-04T02:52:53,42.805,6.029,CST-1368DR,4815,5667,12556,0.872,551
2022-04-04T02:55:55,42.805,6.029,CST-1368DR,4815,5663,12548,0.875,551
2022-04-04T02:58:56,42.805,6.029,CST-1368DR,4815,5664,12549,0.875,551
2022-04-04T03:01:58,42.805,6.029,CST-1368DR,4815,5667,12557,0.872,550
2022-04-04T03:05:00,42.805,6.029,CST-1368DR,4815,5666,12555,0.873,551
2022-04-04T03:08:01,42.805,6.029,CST-1368DR,4815,5666,12554,0.873,551
2022-04-04T03:11:03,42.805,6.029,CST-1368DR,4815,5665,12552,0.874,551
2022-04-04T03:14:04,42.805,6.029,CST-1368DR,4815,5668,12559,0.871,551
2022-04-04T03:17:06,42.805,6.029,CST-1368DR,4815,5665,12552,0.874,551
2022-04-04T03:20:07,42.805,6.029,CST-1368DR,4815,5680,12586,0.863,551
2022-04-04T03:23:09,42.805,6.029,CST-1368DR,4815,5666,12554,0.873,551
2022-04-04T03:26:11,42.805,6.029,CST-1368DR,4815,5667,12557,0.872,551
2022-04-04T03:29:12,42.805,6.029,CST-1368DR,4815,5666,12554,0.873,551
2022-04-04T03:32:14,42.805,6.029,CST-1368DR,4815,5665,12551,0.874,551
2022-04-04T03:40:06,42.805,6.029,CST-1368DR,4815,5668,12558,0.872,551
2022-04-04T03:43:08,42.805,6.029,CST-1368DR,4815,5662,12545,0.876,551
2022-04-04T03:46:09,42.805,6.029,CST-1368DR,4815,5670,12564,0.870,551
2022-04-04T03:49:11,42.805,6.029,CST-1368DR,4815,5667,12557,0.872,551
2022-04-04T03:52:13,42.805,6.029,CST-1368DR,4815,5664,12550,0.874,551
2022-04-04T03:55:14,42.805,6.029,CST-1368DR,4815,5663,12548,0.875,551
2022-04-04T03:58:16,42.805,6.029,CST-1368DR,4815,5665,12552,0.874,551
2022-04-04T04:01:17,42.805,6.029,CST-1368DR,4815,5665,12552,0.874,551
2022-04-04T04:04:19,42.805,6.029,CST-1368DR,4815,5665,12552,0.874,551
2022-04-04T04:07:21,42.805,6.029,CST-1368DR,4815,5665,12551,0.874,551
2022-04-04T04:10:22,42.805,6.029,CST-1368DR,4815,5663,12549,0.875,551
2022-04-04T04:13:24,42.805,6.029,CST-1368DR,4815,5665,12552,0.874,551
2022-04-04T04:16:25,42.805,6.029,CST-1368DR,4815,5665,12552,0.874,551
2022-04-04T04:19:27,42.805,6.029,CST-1368DR,4815,5663,12548,0.875,551
2022-04-04T04:22:28,42.805,6.029,CST-1368DR,4815,5664,12551,0.874,551
2022-04-04T04:25:30,42.805,6.029,CST-1368DR,4815,5664,12549,0.875,551
2022-04-04T04:28:32,42.805,6.029,CST-1368DR,4814,5665,12554,0.873,551
2022-04-04T04:31:33,42.805,6.029,CST-1368DR,4814,5662,12548,0.875,551
2022-04-04T04:34:35,42.805,6.029,CST-1368DR,4814,5662,12548,0.875,551
2022-04-04T04:37:36,42.805,6.029,CST-1368DR,4814,5663,12550,0.874,551
2022-04-04T04:40:38,42.805,6.029,CST-1368DR,4815,5685,12596,0.860,551
2022-04-04T04:43:39,42.805,6.029,CST-1368DR,4815,5670,12564,0.870,551
2022-04-04T04:46:41,42.805,6.029,CST-1368DR,4815,5668,12559,0.871,551
2022-04-04T04:49:43,42.805,6.029,CST-1368DR,4814,5665,12555,0.873,551
2022-04-04T04:52:44,42.805,6.029,CST-1368DR,4815,5667,12556,0.872,551
2022-04-04T04:55:46,42.805,6.029,CST-1368DR,4815,5670,12563,0.870,551
2022-04-04T04:58:47,42.805,6.029,CST-1368DR,4815,5670,12562,0.870,551
2022-04-04T05:01:49,42.805,6.029,CST-1368DR,4815,5671,12565,0.870,551
2022-04-04T05:04:51,42.805,6.029,CST-1368DR,4814,5667,12559,0.871,551
2022-04-04T05:07:52,42.805,6.029,CST-1368DR,4815,5672,12567,0.869,551
2022-04-04T05:10:54,42.805,6.029,CST-1368DR,4815,5686,12598,0.859,551
2022-04-04T05:13:55,42.805,6.029,CST-1368DR,4815,5685,12597,0.859,551
2022-04-04T05:16:57,42.805,6.029,CST-1368DR,4815,5684,12594,0.860,551
2022-04-04T05:19:58,42.805,6.029,CST-1368DR,4815,5682,12590,0.862,550
2022-04-04T05:23:00,42.805,6.029,CST-1368DR,4815,5683,12591,0.861,551
2022-04-04T05:26:02,42.805,6.029,CST-1368DR,4815,5682,12591,0.861,551
2022-04-04T05:29:03,42.805,6.029,CST-1368DR,4815,5681,12588,0.862,551
2022-04-04T05:32:05,42.805,6.029,CST-1368DR,4815,5687,12602,0.858,551
2022-04-04T05:35:06,42.805,6.029,CST-1368DR,4815,5682,12590,0.862,551
2022-04-04T05:38:08,42.805,6.029,CST-1368DR,4815,5674,12573,0.867,551
2022-04-04T05:41:10,42.805,6.029,CST-1368DR,4815,5671,12566,0.869,551
2022-04-04T05:44:11,42.805,6.029,CST-1368DR,4815,5687,12602,0.858,551
2022-04-04T05:47:13,42.805,6.029,CST-1368DR,4815,5684,12594,0.860,551
2022-04-04T05:50:14,42.805,6.029,CST-1368DR,4815,5694,12617,0.853,551
2022-04-04T05:53:16,42.805,6.029,CST-1368DR,4815,5692,12612,0.855,550
2022-04-04T05:56:17,42.805,6.029,CST-1368DR,4815,5690,12608,0.856,551
2022-04-04T05:59:19,42.805,6.029,CST-1368DR,4815,5690,12608,0.856,551
2022-04-04T06:02:21,42.805,6.029,CST-1368DR,4815,5694,12617,0.853,551
2022-04-04T06:05:22,42.805,6.029,CST-1368DR,4815,5691,12609,0.856,551
2022-04-04T06:08:24,42.805,6.029,CST-1368DR,4815,5695,12618,0.853,551
2022-04-04T06:11:25,42.805,6.029,CST-1368DR,4815,5689,12604,0.857,551
2022-04-04T06:14:27,42.805,6.029,CST-1368DR,4815,5691,12611,0.855,551
2022-04-04T06:17:28,42.805,6.029,CST-1368DR,4815,5689,12606,0.856,551
2022-04-04T06:20:30,42.805,6.029,CST-1368DR,4815,5691,12610,0.855,551
2022-04-04T06:23:32,42.805,6.029,CST-1368DR,4815,5694,12617,0.853,551
2022-04-04T06:26:33,42.805,6.029,CST-1368DR,4815,5691,12611,0.855,551
2022-04-04T06:29:35,42.805,6.029,CST-1368DR,4815,5688,12604,0.857,551
2022-04-04T06:32:36,42.805,6.029,CST-1368DR,4815,5689,12604,0.857,551
2022-04-04T06:35:38,42.805,6.029,CST-1368DR,4815,5691,12610,0.855,551
2022-04-04T06:38:40,42.805,6.029,CST-1368DR,4815,5687,12600,0.858,551
2022-04-04T06:41:41,42.805,6.029,CST-1368DR,4815,5689,12606,0.856,551
2022-04-04T06:44:43,42.805,6.029,CST-1368DR,4815,5687,12602,0.858,551
2022-04-04T06:47:44,42.805,6.029,CST-1368DR,4815,5689,12605,0.857,551
2022-04-04T06:50:46,42.805,6.029,CST-1368DR,4815,5688,12602,0.858,551
2022-04-04T06:53:47,42.805,6.029,CST-1368DR,4814,5685,12600,0.858,551
2022-04-04T06:56:49,42.805,6.029,CST-1368DR,4815,5690,12607,0.856,551
2022-04-04T06:59:51,42.805,6.029,CST-1368DR,4814,5685,12598,0.859,551
2022-04-04T07:02:52,42.805,6.029,CST-1368DR,4814,5689,12607,0.856,551
2022-04-04T07:05:54,42.805,6.029,CST-1368DR,4814,5685,12599,0.859,551
2022-04-04T07:08:55,42.805,6.029,CST-1368DR,4814,5689,12609,0.856,551
2022-04-04T07:11:57,42.805,6.029,CST-1368DR,4815,5685,12596,0.860,551
2022-04-04T07:14:58,42.805,6.029,CST-1368DR,4815,5687,12601,0.858,551
2022-04-04T07:18:00,42.805,6.029,CST-1368DR,4815,5697,12623,0.851,551
2022-04-04T07:21:02,42.805,6.029,CST-1368DR,4814,5683,12595,0.860,551
2022-04-04T07:24:03,42.805,6.029,CST-1368DR,4815,5691,12609,0.856,551
2022-04-04T07:27:05,42.805,6.029,CST-1368DR,4815,5691,12609,0.856,551
2022-04-04T07:30:06,42.805,6.029,CST-1368DR,4814,5687,12604,0.857,551
2022-04-04T07:33:08,42.805,6.029,CST-1368DR,4814,5687,12603,0.857,551
2022-04-04T07:36:10,42.805,6.029,CST-1368DR,4814,5685,12600,0.858,551
2022-04-04T07:39:11,42.805,6.029,CST-1368DR,4814,5685,12600,0.858,551
2022-04-04T07:42:13,42.805,6.029,CST-1368DR,4814,5685,12599,0.859,551
2022-04-04T07:45:14,42.805,6.029,CST-1368DR,4814,5684,12596,0.860,551
2022-04-04T07:48:16,42.805,6.029,CST-1368DR,4814,5685,12598,0.859,551
2022-04-04T07:51:17,42.805,6.029,CST-1368DR,4814,5687,12603,0.857,551
2022-04-04T07:54:19,42.805,6.029,CST-1368DR,4814,5687,12603,0.857,551
